Time,TemperatureF,DewpointF,PressureIn,WindDirection,WindDirectionDegrees,WindSpeedMPH,WindSpeedGustMPH,Humidity,HourlyPrecipIn,Conditions,Clouds,dailyrainin,SoftwareType,DateUTC
2013-02-18 00:02:00,33.3,31.5,30.23,NNE,19,0.0,0.0,93,0.00,,,0.04,meteohub,2013-02-17 23:02:00,
2013-02-18 00:32:00,33.3,31.5,30.22,NNE,19,0.0,0.0,93,0.00,,,0.04,meteohub,2013-02-17 23:32:00,
2013-02-18 01:02:00,32.9,31.3,30.22,NNE,19,0.0,1.0,94,0.00,,,0.04,meteohub,2013-02-18 00:02:00,
2013-02-18 01:32:00,32.7,31.1,30.22,NNE,19,0.0,0.0,94,0.00,,,0.00,meteohub,2013-02-18 00:32:00,
2013-02-18 02:02:00,32.7,31.1,30.21,NNE,19,0.0,0.0,94,0.00,,,0.00,meteohub,2013-02-18 01:02:00,
2013-02-18 02:32:00,32.5,31.3,30.20,NNE,19,0.0,1.0,95,0.00,,,0.00,meteohub,2013-02-18 01:32:00,
2013-02-18 03:02:00,32.5,31.3,30.19,NNE,19,0.0,0.0,95,0.00,,,0.00,meteohub,2013-02-18 02:02:00,
2013-02-18 03:32:00,32.5,31.3,30.19,NNE,19,0.0,0.0,95,0.00,,,0.00,meteohub,2013-02-18 02:32:00,
2013-02-18 04:02:00,32.4,31.1,30.19,NNE,19,0.0,0.0,95,0.00,,,0.00,meteohub,2013-02-18 03:02:00,
2013-02-18 04:32:00,32.4,31.1,30.18,NNE,19,0.0,0.0,95,0.00,,,0.00,meteohub,2013-02-18 03:32:00,
2013-02-18 05:02:00,32.4,31.3,30.18,NNE,19,0.0,0.0,96,0.00,,,0.00,meteohub,2013-02-18 04:02:00,
2013-02-18 05:32:00,32.4,31.3,30.18,NNE,19,0.0,0.0,96,0.00,,,0.00,meteohub,2013-02-18 04:32:00,
2013-02-18 06:02:00,32.4,31.3,30.18,NNE,19,0.0,0.0,96,0.00,,,0.00,meteohub,2013-02-18 05:02:00,
2013-02-18 06:32:00,32.5,31.5,30.18,NNE,19,0.0,0.0,96,0.00,,,0.00,meteohub,2013-02-18 05:32:00,
2013-02-18 07:02:00,32.5,31.5,30.18,NNE,19,0.0,0.0,96,0.00,,,0.00,meteohub,2013-02-18 06:02:00,
2013-02-18 07:32:00,32.5,31.5,30.18,NNE,19,0.0,0.0,96,0.00,,,0.00,meteohub,2013-02-18 06:32:00,
2013-02-18 08:02:00,32.9,31.8,30.19,NNE,19,0.0,0.0,96,0.00,,,0.00,meteohub,2013-02-18 07:02:00,
2013-02-18 08:32:00,33.1,32.0,30.19,NNE,19,0.0,0.0,96,0.00,,,0.00,meteohub,2013-02-18 07:32:00,
2013-02-18 09:02:00,33.4,32.2,30.19,NNE,19,0.0,2.0,95,0.00,,,0.00,meteohub,2013-02-18 08:02:00,
2013-02-18 09:32:00,34.0,32.4,30.19,NNE,19,0.0,0.0,94,0.00,,,0.00,meteohub,2013-02-18 08:32:00,
2013-02-18 10:02:00,34.5,31.6,30.19,North,11,0.0,3.0,89,0.00,,,0.00,meteohub,2013-02-18 09:02:00,
2013-02-18 10:32:00,35.1,31.3,30.19,NNE,16,2.0,4.0,86,0.00,,,0.00,meteohub,2013-02-18 09:32:00,
2013-02-18 11:02:00,35.4,31.3,30.19,NNE,16,2.0,4.0,85,0.00,,,0.00,meteohub,2013-02-18 10:02:00,
2013-02-18 11:32:00,36.0,31.3,30.19,NNE,16,0.0,3.0,83,0.00,,,0.00,meteohub,2013-02-18 10:32:00,
2013-02-18 12:02:00,36.1,31.1,30.18,NNE,18,0.0,3.0,82,0.00,,,0.00,meteohub,2013-02-18 11:02:00,
2013-02-18 12:32:00,36.1,30.9,30.18,East,100,0.0,2.0,81,0.00,,,0.00,meteohub,2013-02-18 11:32:00,
2013-02-18 13:02:00,36.9,30.9,30.17,NE,39,1.0,3.0,79,0.00,,,0.00,meteohub,2013-02-18 12:02:00,
2013-02-18 13:32:00,37.4,30.9,30.17,NE,39,0.0,2.0,77,0.00,,,0.00,meteohub,2013-02-18 12:32:00,
2013-02-18 14:02:00,37.6,31.3,30.16,East,98,0.0,3.0,78,0.00,,,0.00,meteohub,2013-02-18 13:02:00,
2013-02-18 14:32:00,37.4,30.6,30.15,SE,125,0.0,1.0,76,0.00,,,0.00,meteohub,2013-02-18 13:32:00,
2013-02-18 15:02:00,37.2,30.7,30.15,SE,125,0.0,2.0,77,0.00,,,0.00,meteohub,2013-02-18 14:02:00,
2013-02-18 15:32:00,37.4,30.6,30.14,SE,125,0.0,2.0,76,0.00,,,0.00,meteohub,2013-02-18 14:32:00,
2013-02-18 16:02:00,37.4,29.8,30.14,SE,138,0.0,2.0,74,0.00,,,0.00,meteohub,2013-02-18 15:02:00,
2013-02-18 16:32:00,37.0,30.6,30.14,East,94,0.0,3.0,77,0.00,,,0.00,meteohub,2013-02-18 15:32:00,
2013-02-18 17:02:00,36.5,30.6,30.13,East,90,0.0,2.0,79,0.00,,,0.00,meteohub,2013-02-18 16:02:00,
2013-02-18 17:32:00,36.1,30.2,30.14,East,90,0.0,1.0,79,0.00,,,0.00,meteohub,2013-02-18 16:32:00,
2013-02-18 18:02:00,35.6,30.7,30.14,East,90,0.0,0.0,82,0.00,,,0.00,meteohub,2013-02-18 17:02:00,
2013-02-18 18:32:00,35.1,30.7,30.14,East,90,0.0,1.0,84,0.00,,,0.00,meteohub,2013-02-18 17:32:00,
2013-02-18 19:02:00,34.5,30.2,30.14,East,90,0.0,0.0,84,0.00,,,0.00,meteohub,2013-02-18 18:02:00,
2013-02-18 19:32:00,34.3,30.6,30.14,East,90,0.0,0.0,86,0.00,,,0.00,meteohub,2013-02-18 18:32:00,
2013-02-18 20:02:00,34.0,30.6,30.13,East,90,0.0,1.0,87,0.00,,,0.00,meteohub,2013-02-18 19:02:00,
2013-02-18 20:32:00,34.0,30.7,30.13,East,90,0.0,0.0,88,0.00,,,0.00,meteohub,2013-02-18 19:32:00,
2013-02-18 21:02:00,33.6,30.4,30.12,East,90,0.0,1.0,88,0.00,,,0.00,meteohub,2013-02-18 20:02:00,
2013-02-18 21:32:00,33.4,30.6,30.12,East,90,0.0,0.0,89,0.00,,,0.00,meteohub,2013-02-18 20:32:00,
2013-02-18 22:02:00,33.4,30.7,30.12,East,90,0.0,1.0,90,0.00,,,0.00,meteohub,2013-02-18 21:02:00,
2013-02-18 22:32:00,33.3,30.6,30.11,East,90,1.0,1.0,90,0.00,,,0.00,meteohub,2013-02-18 21:32:00,
2013-02-18 23:02:00,33.4,30.6,30.10,NE,40,0.0,2.0,89,0.00,,,0.00,meteohub,2013-02-18 22:02:00,
2013-02-18 23:32:00,33.8,30.4,30.10,NE,40,0.0,2.0,87,0.00,,,0.00,meteohub,2013-02-18 22:32:00,